Location: Unspecified
(0.0000°N, 0.0000°E)
Time: 00:19:18
(UTC+00:00)

Vanguard 3 - Visible Passes

Search period start: 13 December 2018 00:00
Search period end: 23 December 2018 00:00
Orbit: 508 x 3263 km, 33.4° (Epoch: 12 December)

Date Brightness Start Highest point End Pass type
(mag) Time Alt. Az. Time Alt. Az. Time Alt. Az.
13 Dec 8.6 04:27:34 19° NNW 04:31:49 31° NNE 04:36:21 10° E visible
13 Dec 10.7 20:01:03 10° W 20:17:08 38° NNW 20:26:19 27° NNE visible
13 Dec 11.3 22:26:42 10° NW 22:30:53 14° NW 22:30:53 14° NW visible
14 Dec 9.6 03:17:57 21° NNE 03:17:57 21° NNE 03:21:52 10° ENE visible
14 Dec 7.1 05:23:23 10° NW 05:30:25 89° NE 05:34:45 10° SE visible
14 Dec 10.4 18:44:05 10° WSW 18:59:17 53° NNW 19:16:36 14° NE visible
14 Dec 10.9 21:04:51 10° WNW 21:19:09 24° NNW 21:21:11 24° NNW visible
15 Dec 8.3 04:12:56 29° NNW 04:16:22 44° NNE 04:21:29 10° E visible
15 Dec 10.8 19:45:33 10° W 20:00:38 34° NNW 20:11:26 21° NNE visible
15 Dec 11.3 22:11:11 10° NW 22:16:01 14° NNW 22:16:01 14° NNW visible
16 Dec 9.4 03:03:19 26° NE 03:03:19 26° NE 03:07:23 10° E visible
16 Dec 7.4 05:07:54 13° WNW 05:14:47 68° SW 05:19:24 10° SE visible
16 Dec 10.5 18:28:31 10° W 18:42:41 46° NNW 19:01:23 10° NE visible
16 Dec 10.9 20:49:37 10° WNW 21:03:05 22° NNW 21:06:14 22° N visible
17 Dec 8.1 03:58:16 43° NNW 04:00:48 59° NNE 04:06:25 10° ESE visible
17 Dec 10.9 19:30:16 10° WNW 19:44:18 30° NNW 19:56:26 17° NNE visible
17 Dec 11.3 21:55:34 10° NW 22:01:01 15° NNW 22:01:01 15° NNW visible
18 Dec 9.4 02:48:38 30° ENE 02:48:38 30° ENE 02:52:36 10° E visible
18 Dec 7.8 04:53:13 19° WNW 04:59:02 53° SW 05:03:58 10° SE visible
18 Dec 10.6 18:13:08 10° W 18:26:16 40° NNW 18:44:05 10° NE visible
18 Dec 11.0 20:34:30 10° NW 20:47:08 21° NNW 20:51:11 19° N visible
19 Dec 8.0 03:43:33 62° NNW 03:45:05 77° NE 03:51:13 10° ESE visible
19 Dec 10.9 19:15:12 10° WNW 19:28:09 26° NNW 19:41:20 13° NNE visible
19 Dec 11.2 21:39:47 10° NW 21:45:54 15° NNW 21:45:54 15° NNW visible
20 Dec 9.4 02:33:52 32° E 02:33:52 32° E 02:37:37 10° E visible
20 Dec 8.3 04:38:27 23° W 04:43:10 43° SW 04:48:27 10° SSE visible
20 Dec 10.6 17:57:57 10° W 18:10:02 35° NNW 18:26:41 10° NE visible
20 Dec 11.0 20:19:28 10° NW 20:31:20 19° N 20:36:02 18° N visible
21 Dec 8.1 03:28:44 81° WNW 03:29:14 87° SW 03:35:53 10° SE visible
21 Dec 11.0 19:00:20 10° WNW 19:12:11 23° NNW 19:26:09 10° NNE visible
21 Dec 11.2 21:23:50 10° NW 21:30:42 16° NNW 21:30:42 16° NNW visible
22 Dec 9.6 02:18:59 32° E 02:18:59 32° E 02:22:29 10° ESE visible
22 Dec 8.7 04:23:34 27° W 04:27:14 36° SW 04:32:51 10° SSE visible
22 Dec 11.0 20:04:27 10° NW 20:15:36 18° N 20:20:49 16° NNE visible
